Overview Statistics Trail Chart Weather Telemetry Raw packets
 

This is the latest recevied weather packets stored in our database for station/object K4KMJ. If no packets are shown the sender has not sent any weather packets the latest 10 day(s).

<< 53 54 55 56 57 58 59 >>
Time Temp. Humidity Pressure Rain* Wind** Luminosity Snow
1788304999 28.33° C 90% 1018 hPa 0 mm - 20 W/m² -
1788304695 28.33° C 90% 1018.1 hPa 0 mm - 30 W/m² -
1788304391 28.89° C 89% 1017.6 hPa 0 mm - 41 W/m² -
1788304088 28.89° C 89% 1017.9 hPa 0 mm - 49 W/m² -
1788303787 28.89° C 89% 1018 hPa 0 mm - 52 W/m² -
1788303482 28.89° C 88% 1017.9 hPa 0 mm - 56 W/m² -
1788303176 29.44° C 87% 1017.6 hPa 0 mm - 77 W/m² -
1788302872 29.44° C 86% 1017.6 hPa 0 mm - 73 W/m² -
1788302568 30° C 85% 1017.8 hPa 0 mm - 68 W/m² -
1788302264 29.44° C 85% 1017.8 hPa 0 mm - 109 W/m² -
1788301958 29.44° C 85% 1017.6 hPa 0 mm - 116 W/m² -
1788301655 29.44° C 86% 1017.5 hPa 0 mm - 79 W/m² -
1788301351 29.44° C 88% 1017.6 hPa 0 mm - 91 W/m² -
1788301046 28.89° C 89% 1017.4 hPa 0 mm - 84 W/m² -
1788300742 28.89° C 89% 1017.6 hPa 0 mm - 93 W/m² -
1788300441 28.89° C 88% 1017.6 hPa 0 mm - 88 W/m² -
1788300135 28.89° C 88% 1017.3 hPa 0 mm - 86 W/m² -
1788299834 29.44° C 88% 1017.4 hPa 0 mm - 86 W/m² -
1788299528 28.89° C 88% 1017.3 hPa 0 mm - 180 W/m² -
1788299226 29.44° C 87% 1017.3 hPa 0 mm - 83 W/m² -
1788298921 29.44° C 86% 1017.2 hPa 0 mm - 150 W/m² -
1788298615 30° C 85% 1017.3 hPa 0 mm - 130 W/m² -
1788298310 30° C 85% 1017.1 hPa 0 mm - 262 W/m² -
1788298009 30° C 84% 1017.2 hPa 0 mm - 151 W/m² -
1788297705 30.56° C 84% 1017 hPa 0 mm - 154 W/m² -

* Rain latest hour (hover to see other rain measurements)
** Current wind speed in m/s (hover to see current wind gust speed)